#timestamp,LO_Frequency,Hit,StdDev 
1665684015.8,286046999.1,N
1665684035.6,286046999.4,N
1665684055.4,286046998.7,N
1665684075.3,286047000.9,N
1665684095.1,286047002.7,N
1665684115.9,286047002.5,N
1665684135.7,286047000.4,N
1665684155.5,286047002.2,N
1665684175.4,286047001.5,N
1665684195.2,286047005.7,Y
1665684215.0,286047003.2,P
1665684215.9,286047003.2,N
1665684235.8,286047003.0,N
1665684255.6,286047001.9,N
1665684275.5,286047004.1,Y
1665684295.3,286047002.5,P
1665684315.1,286047003.9,P
1665684335.9,286047004.2,P
1665684355.7,286047003.2,Y
1665684375.5,286046999.4,P
1665684395.4,286046999.1,N
1665684415.2,286046999.3,N
1665684435.1,286047001.1,N
1665684436.0,286047001.1,N
1665684455.8,286046999.2,N
1665684475.6,286046999.0,N
1665684495.5,286047000.0,N
1665684515.3,286047004.2,Y
1665684535.1,286047001.9,P
1665684555.9,286047002.3,N
1665684575.7,286047000.5,N
1665684595.6,286047000.9,N
1665684615.4,286046998.2,N
1665684635.2,286047000.6,N
1665684655.1,286047002.5,N
1665684656.0,286047002.5,N
1665684675.8,286047001.5,N
1665684695.7,286047002.4,N
1665684715.5,286047002.1,N
1665684735.3,286047002.0,N
1665684755.2,286047001.6,N
1665684775.9,286047000.3,N
1665684795.7,286046999.7,N
1665684815.6,286047000.1,N
1665684835.4,286047001.7,N
1665684855.2,286047002.1,N
1665684875.1,286047001.8,N
1665684876.0,286047001.8,N
1665684895.8,286047001.9,N
1665684915.7,286047001.4,N
1665684935.5,286047002.4,N
1665684955.3,286047001.1,N
1665684975.2,286047000.3,N
1665684995.0,286047002.5,N
1665684995.9,286047002.5,N
1665685015.8,286047000.6,N
1665685035.6,286047002.1,N
1665685055.4,286047002.2,N
1665685075.3,286047001.7,N
1665685095.1,286047002.2,N
1665685115.8,286046999.7,N
1665685135.7,286047002.2,N
1665685155.5,286047001.7,N
1665685175.4,286047000.1,N
1665685195.2,286047000.1,N
1665685215.0,286047001.2,N
1665685215.9,286047001.2,N
1665685235.8,286046998.6,N
1665685255.6,286046999.5,N
1665685275.4,286046998.3,N
1665685295.3,286046998.2,N
1665685315.1,286047000.3,N
1665685335.9,286047000.8,N
1665685355.7,286047000.9,N
1665685375.5,286047000.6,N
1665685395.4,286047002.0,N
1665685415.2,286047002.6,N
1665685435.1,286047002.5,N
1665685436.0,286047002.5,N
1665685455.8,286047002.2,N
1665685475.6,286047001.7,N
1665685495.5,286047001.6,N
1665685515.3,286047002.0,N
1665685535.1,286047002.3,N
1665685555.9,286047001.9,N
1665685575.7,286047000.0,N
1665685595.6,286047002.4,N
1665685615.4,286047000.4,N
1665685635.2,286047001.5,N
1665685655.1,286047002.6,N
1665685656.0,286047002.6,N
1665685675.8,286047002.5,N
1665685725.7,286047001.8,E
1665685735.6,286047002.7,N
1665685755.4,286047000.8,P
1665685775.3,286046998.3,N
1665685795.1,286046998.1,N
1665685815.9,286046999.1,N
1665685835.7,286046996.7,N
1665685855.5,286046999.0,N
1665685875.4,286047000.5,N
1665685895.2,286046999.2,N
1665685915.0,286046998.8,N
1665685915.9,286046998.8,N
1665685935.8,286046997.1,N
1665685955.6,286046997.3,N
1665685975.5,286046996.6,N
1665685995.3,286046995.0,Y
1665686015.1,286046997.4,P
1665686035.9,286046999.2,N
1665686055.7,286046999.3,N
1665686075.6,286046998.4,N
1665686095.4,286046998.3,N
1665686115.2,286047000.6,N
1665686135.1,286047000.8,N
1665686136.0,286047000.8,N
1665686155.8,286047000.9,N
1665686175.6,286046998.4,N
1665686195.5,286047000.8,N
1665686215.3,286046998.8,N
1665686235.2,286046996.5,Y
1665686255.9,286046998.9,P
1665686275.7,286047000.0,N
1665686295.6,286046998.3,P
1665686315.4,286046998.1,Y
1665686335.3,286046999.9,P
1665686355.1,286047002.0,P
1665686356.0,286047002.0,N
1665686375.8,286047002.5,N
1665686395.7,286047001.3,N
1665686415.5,286047004.3,Y
1665686435.3,286047000.0,P
1665686455.2,286047001.0,N
1665686475.0,286046999.8,N
1665686475.9,286046999.8,N
1665686495.8,286047002.5,Y
1665686515.6,286047002.7,P
1665686535.4,286047000.7,N
1665686555.3,286047002.2,N
1665686575.1,286047002.7,N
1665686595.8,286047002.7,N
1665686615.7,286046998.2,N
1665686635.5,286047000.5,N
1665686655.4,286047000.8,N
1665686675.2,286047002.0,N
1665686695.0,286047002.8,N
1665686695.9,286047002.8,N
1665686715.8,286047002.6,N
1665686735.6,286047002.7,N
1665686755.4,286047001.7,N
1665686775.3,286047002.3,N
1665686795.1,286047002.8,N
1665686815.9,286047003.9,Y
1665686835.7,286047001.2,P
1665686855.5,286047001.0,P
1665686875.4,286046999.9,N
1665686895.2,286047000.2,N
1665686915.0,286047000.5,N
1665686915.9,286047000.5,N
1665686935.8,286047001.1,N
1665686955.6,286047001.2,N
1665686975.5,286047000.4,N
1665686995.3,286047004.3,Y
1665687015.1,286047000.0,P
1665687035.9,286047001.0,N
1665687055.7,286047002.5,P
1665687075.5,286047001.7,N
1665687095.4,286047001.9,N
1665687115.2,286047001.8,N
1665687135.1,286047002.5,Y
1665687136.0,286047002.5,P
1665687155.8,286047000.6,N
1665687175.6,286046998.5,N
1665687195.5,286047000.5,N
1665687215.3,286047002.6,N
1665687235.1,286047002.3,N
1665687255.9,286047001.1,N
1665687275.7,286046997.1,N
1665687295.6,286046995.5,N
1665687315.4,286046995.9,N
1665687335.2,286046993.9,N
1665687355.1,286046993.9,N
1665687356.0,286046993.9,N
1665687375.8,286046994.8,N
1665687395.6,286046994.6,N
1665687415.5,286046993.4,N
1665687435.3,286046994.6,N
1665687455.1,286046994.6,N
1665687475.9,286046991.7,N
1665687495.7,286046993.6,N
1665687515.6,286046992.1,N
1665687535.4,286046994.6,N
1665687555.2,286046994.3,N
1665687575.1,286046992.8,N
1665687576.0,286046992.8,N
1665687595.8,286046993.1,N
